Location: Dürabuch
(48.2640°N, 11.2185°E)
Time: 03:37:12
(UTC+00:00)

NOSS 3-4 (A) - Pass Details

Date: 23 May 2024
Orbit: 801 x 1410 km, 63.4° (Epoch: 04 June)

Event Time Altitude Azimuth Distance (km) Brightness Sun altitude
Rises 00:34:21 0° 315° (NW) 3,800 6.9 -18.7°
Reaches altitude 10° 00:36:59 10° 308° (NW) 2,931 6.2 -18.5°
Maximum altitude 00:43:26 40° 242° (WSW) 1,688 4.4 -18.1°
Enters shadow 00:47:12 25° 192° (SSW) 2,274 4.8 -17.9°
